This demonstration page uses our WeatherBlox Daily Observations layout. Learn more.

Left ArrowRight Arrow

39.92423, -83.80882

Hourly Observations for May 28, 2022

Temp ( °F °C ) Dew Point ( °F °C ) Humidity (%) Winds ( mph kmh ) Pressure ( in mb ) Visibility ( mi km ) Precip ( " mm )
12:47 am 00:47 Cloudy N/A N/A N/A W 7 11 N/A 10 16 0.00 0.00
12:56 am 00:56 Cloudy N/A N/A N/A W 7 11 N/A 10 16 0.00 0.00
1:56 am 01:56 Cloudy 61 16 N/A N/A WNW 13 20 29.84 1010 7 11 0.00 0.00
2:19 am 02:19 Cloudy 59 15 N/A N/A W 9 15 29.83 1010 7 11 0.00 0.00
2:56 am 02:56 Cloudy with Haze N/A N/A N/A W 10 17 N/A 6 10 0.00 0.00
3:56 am 03:56 Cloudy with Mist and Fog N/A N/A N/A WNW 12 19 N/A 3 5 0.00 0.00
4:56 am 04:56 Cloudy with Mist and Fog N/A N/A N/A W 12 19 N/A 3 5 0.00 0.00
5:07 am 05:07 Cloudy with Mist and Fog N/A N/A N/A W 10 17 N/A 3 4 0.00 0.00
5:29 am 05:29 Cloudy with Haze N/A N/A N/A W 8 13 N/A 4 6 0.00 0.00
5:49 am 05:49 Cloudy N/A N/A N/A W 8 13 N/A 7 11 0.00 0.00
5:56 am 05:56 Cloudy N/A N/A N/A WNW 10 17 N/A 8 13 0.00 0.00
6:16 am 06:16 Cloudy 55 13 N/A N/A W 13 20 29.90 1013 10 16 0.00 0.00
6:56 am 06:56 Cloudy 55 13 N/A N/A WNW 12 19 29.91 1013 9 14 0.00 0.00
7:56 am 07:56 Cloudy 55 13 N/A N/A WNW 9 15 29.93 1014 10 16 0.00 0.00
8:56 am 08:56 Cloudy 57 14 N/A N/A WNW 9 15 29.95 1014 10 16 0.00 0.00
9:56 am 09:56 Cloudy 59 15 59 15 100 100 NW 6 9 29.96 1015 10 16 0.00 0.00
10:56 am 10:56 Cloudy 60 15.6 60 15.6 100 100 SSW 3 6 29.95 1014 10 16 0.00 0.00
11:56 am 11:56 Cloudy 62 16.7 62 16.7 100 100 WNW 8 13 29.95 1014 10 16 0.00 0.00
12:56 pm 12:56 Cloudy 62 16.7 61 16.1 96 96 W 3 6 29.96 1015 10 16 0.00 0.00
1:56 pm 13:56 Cloudy 65 18.3 62 16.7 90 90 WNW 6 9 29.97 1015 10 16 0.00 0.00
2:56 pm 14:56 Cloudy 66 18.9 62 16.7 87 87 NW 5 7 29.95 1014 10 16 0.00 0.00
3:53 pm 15:53 Cloudy 66 19 63 17 88 88 SW 5 7 29.96 1014 10 16 0.00 0.00
3:56 pm 15:56 Cloudy 66 18.9 63 17.2 90 90 SW 3 6 29.95 1014 10 16 0.00 0.00
4:56 pm 16:56 Partly Cloudy 70 21.1 61 16.1 73 73 SW 3 6 29.93 1013 10 16 0.00 0.00
5:25 pm 17:25 Cloudy 70 21 61 16 73 73 WSW 7 11 29.93 1013 10 16 0.00 0.00
5:34 pm 17:34 Mostly Cloudy 70 21 61 16 73 73 SW 5 7 29.92 1013 10 16 0.00 0.00
5:56 pm 17:56 Partly Cloudy 69 20.6 61 16.1 76 76 SW 6 9 29.92 1013 10 16 0.00 0.00
6:47 pm 18:47 Mostly Cloudy 70 21 61 16 73 73 SW 6 9 29.91 1013 10 16 0.00 0.00
6:56 pm 18:56 Partly Cloudy 70 21.1 62 16.7 76 76 WSW 6 9 29.93 1014 10 16 0.00 0.00
7:56 pm 19:56 Mostly Cloudy 68 20 62 16.7 81 81 Calm 29.95 1014 10 16 0.00 0.00
8:56 pm 20:56 Partly Cloudy 65 18.3 65 18.3 100 100 SSE 5 7 29.95 1014 10 16 0.00 0.00
9:56 pm 21:56 Clear 63 17.2 63 17.2 100 100 SSE 6 9 29.95 1014 10 16 0.00 0.00
10:56 pm 22:56 Clear 63 17 N/A N/A SE 8 13 29.97 1015 10 16 0.00 0.00
11:56 pm 23:56 Clear N/A N/A N/A SSE 8 13 N/A 10 16 0.00 0.00

Powered by AerisWeather